SL-16 R/B, 23705

Orbit data source: Space-Track

SL-16 R/B, 23705 is space debris in LEO originally from a launch on Tue, 31 Oct 1995 UTC launched from the Tyuratam Missile And Space Complex (TTMTR). Debris objects in space refer to the collection of defunct objects orbiting the Earth. Examples of debris include non-operational satellites, rocket bodies, and fragments generated from explosions, collisions, or faulty payload assembly.

Loading next visibility...
Identifier
23705, 1995-058B
Orbit
LEO
Country
Flag of CISCIS
Related business
Manufacturer
Yuzhnoe
Mission
Spacecraft
Bus & Motor
11S772, Unknown motor
Mass
9,000 kg wet, 9,000 kg dry
Launch date (UTC)
1995-10-31 (31 years ago)
Launch vehicle
Unknown
Launch site
Tyuratam Missile And Space Complex (TTMTR)
Object type
Payload
Rocket body
Debris
Shape & HBR
Cyl, 5.2 m
Radar Cross Section
37.829 m², Large (>1 m²)

Expand to show TLE details & history
Last TLE update: 2 days ago

TLE from 2 days ago
0 SL-16 R/B
1 23705U 95058B   26171.45387037  .00000220  00000-0  13689-3 0  9992
2 23705  71.0225 324.4993 0013967 316.0138  43.9873 14.15510419582390
Epoch: 2026-06-20T10:53Z
TLE epoch observation values (Epoch: 2026-06-20T10:53:34.399Z)
Latitude
-0°
Longitude
-107.5623°
Altitude
835.73 km
Speed
7.439 km/s
True Right ascension
21h 37m 59s
True Declination
0° 00' 00"
Sunlit
Object was in full shadow at epoch
Visualization orbit readout
Latitude
Unknown
Longitude
Unknown
Altitude
Unknown
Speed
Unknown
Apparent Right ascension
Unknown
Apparent Declination
Unknown
Sunlit
N/A
Visualization observer readout
Local Sidereal Time
23:18:27
Azimuth
Unknown
Elevation
Unknown
Doppler factor
Unknown
Orbital elements
Apogee altitude
848.578 km
Perigee altitude
828.419 km
Semi-major axis
7,216.635 km
Eccentricity
0.0014
Inclination
71.0225°
RAAN
324.4993°
Arg. of periapsis
316.0138°
True anomaly
44.09859°
Mean anomaly
43.9873°
Eccentric anomaly
44.04293°
Mean motion
3.54031 °/min
Orbital period
101.69 mins
BSTAR
0.00013689
Loading maneuver chart data...
Computing Atmospheric mass density...
Loading historical data...
Loading historical data...
Loading historical data...
Loading historical data...
Loading historical data...
Loading historical data...
Loading historical data...

Documentation

Showing up to 5 results
|